www.pogodaiklimat.ru

Погода и климат >> Архив погоды >> Алжир >> Mostaganem Ville


ПОГОДА в Mostaganem Ville

  • Прогноз погоды в Mostaganem Ville
  • Монитор погоды в Mostaganem Ville
  • Климат города

АРХИВ ПОГОДЫ в Mostaganem Ville

Время (UTC), дата Ветер
(напр.,м/с)
 
Видим.   Явления Облачность Т
(С)
Тd
(С)
f
(%)
Тe
(С)
Тes
(С)
Комфортность P
(гПа)
Po
(гПа)
Тmin
(С)
Tmax
(С)
R
(мм)
R24
(мм)
S
(см)
06 15.10 СВ 2 10 км ясно +17.8 +3.9 40 +19 +19 1023.3 1023.0 +17.7
09 15.10 СВ 1 10 км ясно +24.7 +5.6 29 +24 +30 комфорт 1024.4 1024.0
12 15.10 СЗ 4 10 км ясно +27.3 +8.6 31 +27 +35 жарко 1023.0 1023.0
15 15.10 СВ 3 12 км ясно +30.3 +9.3 27 +30 +34 жарко 1020.9 1021.0
18 15.10 СВ 3 12 км ясно +22.8 +10.9 47 +25 +25 комфорт 1021.4 1021.0 +30.9
06 16.10 штиль 0 8000 м ясно +14.0 +13.1 94 +14 +14 1022.4 1022.0 +13.4
09 16.10 ЮВ 2 8000 м ясно +23.1 +11.5 48 +25 +30 комфорт 1023.7 1024.0
12 16.10 С 4 10 км 1/1 600 м
[Cu hum]
+25.5 +14.6 51 +28 +35 жарко 1022.9 1023.0
15 16.10 С 3 10 км 3/3 600 м
[Cu hum Ci sp]
+24.9 +10.1 39 +26 +28 жарко 1021.9 1022.0
18 16.10 штиль 0 10 км ясно +22.7 +8.8 41 +24 +24 комфорт 1021.8 1022.0 +27.6
06 17.10 штиль 0 2000 м дымка ясно +17.6 +16.3 92 +18 +18 1022.2 1022.0 +13.0
09 17.10 С 1 5000 м 4/4 480 м
[Cu hum]
+20.5 +18.3 87 +25 +28 комфорт 1023.6 1024.0
12 17.10 С 3 8000 м 1/0
[Ci fib]
+24.4 +17.8 67 +29 +38 душно 1022.0 1022.0
15 17.10 СЗ 3 10 км 3/0
[Ac cast Ci fib]
+24.1 +16.5 63 +28 +31 душно 1019.9 1020.0
18 17.10 СЗ 1 10 км 4/0
[Ac cast]
+21.4 +17.0 76 +25 +25 комфорт 1019.4 1019.0 +24.9
06 18.10 СВ 1 10 км 8/0
[Ac cast Ci sp]
+17.1 +12.5 74 +18 +18 1016.4 1016.0 +14.3
09 18.10 Ю 1 10 км в посл. час дождь 9/4 800 м
[Sc Ac cast Ci sp]
+21.1 +13.0 60 +23 +25 комфорт 1016.9 1017.0
12 18.10 Ю 3 10 км {дождь} 3/0
[Ac cast Ci sp]
+28.0 +13.1 40 +30 +36 жарко 1013.8 1014.0 0.6
15 18.10 ЮЗ 4 10 км 10/6 600 м
[Cb calv Ci sp]
+23.4 +17.3 69 +29 +30 душно 1013.7 1014.0
18 18.10 ЮЗ 2 8000 м дождь 9/9 600 м
[Cu Sc]
+19.5 +17.4 88 +23 +23 комфорт 1015.5 1016.0 +30.3 3
06 19.10 Ю 1 8000 м слабый дождь 10/4 800 м
[Sc As op]
+16.4 +14.9 91 +17 +17 1012.0 1012.0 +16.4 6
09 19.10 ЮЗ 5 8000 м слабый дождь 10/4 800 м
[Sc As op]
+17.1 +15.4 90 +16 +17 1013.4 1013.0
12 19.10 Ю 3 8000 м в посл. час дождь 10/10 600 м
[Cu Sc]
+17.8 +16.1 90 +18 +18 1011.9 1012.0 6
15 19.10 С 2 8000 м в посл. час ливневой дождь 9/9 600 м
[Cu med, cong]
+16.9 +15.7 93 +17 +17 1010.8 1011.0
18 19.10 СЗ 2 10 км {ливн. осадки, дождь} 9/9 600 м
[Cu Sc]
+17.2 +15.9 92 +18 +18 1013.6 1014.0 +19.0 18
06 20.10 СЗ 2 12 км 3/1 600 м
[Cu med, cong Ac cast]
+19.4 +13.3 68 +21 +21 комфорт 1016.5 1017.0 +19.1 19
09 20.10 З 3 12 км 4/4 600 м
[Cu med, cong Ac cast]
+21.4 +16.0 71 +25 +27 комфорт 1018.6 1019.0
12 20.10 З 2 10 км слабый дождь 9/9 600 м
[Cu Sc]
+20.4 +16.8 80 +24 +25 комфорт 1019.4 1019.0 0.0
15 20.10 СЗ 2 12 км {дождь} 4/4 600 м
[Cu med, cong]
+18.7 +15.2 80 +20 +23 1019.8 1020.0
18 20.10 штиль 0 12 км {дождь} 3/3 600 м
[Cu med, cong]
+18.8 +14.9 78 +20 +20 1020.9 1021.0 +21.8 2
06 21.10 штиль 0 10 км ясно +13.8 +13.3 97 +13 +13 1022.4 1022.0 +13.2 2

 

Местоположение метеостанции Mostaganem Ville (Алжир): широта 35.88 долгота 0.12 высота над уровнем моря 138 м.

В архиве по умолчанию представлена погода в Mostaganem Ville за последнюю неделю. Архивные данные за месяц целиком и за предыдущие месяцы, начиная с января 2011 года, Вы можете получить, выбрав интересующий диапазон дат из раскрывающегося списка и нажав кнопку "Ввод!".

Внимание! Время в таблицах - всемирное. Для получения местного времени необходимо прибавить поправку, которая в Mostaganem Ville равна 1 ч.

Смотрите также архив погоды в соседних городах и на ближайших метеорологических станциях:

Погода в Arzew (Алжир) (36 км)
Погода в Relizane (Алжир) (42 км)
Погода в Oran (Es Senia) (Алжир) (71 км)
Погода в Oran-Port (Алжир) (72 км)
Погода в Oran Tafaraoui (Алжир) (73 км)
Погода в Mascara Ghriss (Алжир) (73 км)
Погода в Sidi Bel Abbes (Алжир) (101 км)
Погода в Saida (Алжир) (112 км)
Погода в Chlef (Алжир) (115 км)
Погода в Tenes (Алжир) (129 км)

Пояснения к столбцам:

Ветер - указаны скорость ветра в м/с - средняя за 10 мин, порывы в срок и между сроками (в фигурных скобках) и направление, откуда дует ветер: С - северный, СВ - северо-восточный, В - восточный, ЮВ - юго-восточный, Ю - южный, ЮЗ - юго-западный, З - западный, СЗ - северо-западный.
Видимость - горизонтальная дальность видимости в метрах или километрах. При видимости от 1 до 10 км при отсутствии осадков обычно наблюдается дымка, при ухудшении видимости до 1 км и менее - туман. В сухую погоду видимость может ухудшаться дымом, пылью или мглою.
Явления - указаны атмосферные явления, наблюдавшиеся в срок или в последний час перед сроком; фигурными скобками обозначены явления, наблюдавшиеся между сроками (за 1-3 часа до срока); квадратными скобками обозначены град или гололедные отложения с указанием их диаметра в мм.
Облачность - указаны через наклонную черту общая и нижняя облачность в баллах и высота нижней границы облаков в метрах; квадратными скобками обозначены формы облаков: Ci - перистые, Cs - перисто-слоистые, Cc - перисто-кучевые, Ac - высококучевые, As - высокослоистые, Sc - слоисто-кучевые, Ns - слоисто-дождевые, Cu - кучевые, Cb - кучево-дождевые. Подробнее классификацию облаков см. в Атласе облаков (PDF).
T - Температура воздуха - температура, измеренная на высоте 2 м над землей.
Td - Температура точки росы - температура, при понижении до которой содержащийся в воздухе водяной пар достигнет насыщения.
f - Относительная влажность воздуха - влажноcть воздуха, измеренная на высоте 2 м над землей.
Te - Эффективная температура - температура, которую ощущает одетый по сезону человек в тени. Характеристика душности погоды. При расчете учитывается влияние влажности воздуха и скорости ветра на теплоощущения человека.
Tes - Эффективная температура на солнце - температура, которую ощущает человек, с поправкой на солнечный нагрев. Характеристика знойности погоды. Зависит от высоты солнца над горизонтом, облачности и скорости ветра. Ночью, в пасмурную погоду, а также при ветре 12 м/с и более поправка равна нулю.
P - Атмосферное давление - приведенное к уровню моря атмосферное давление.
Po - Атмосферное давление - измеренное на уровне метеостанции атмосферное давление.
Tmin - Минимальная температура - минимум температуры воздуха на высоте 2 м над землей.
Tmax - Максимальная температура - максимум температуры воздуха на высоте 2 м над землей.
R - Количество осадков - Количество выпавших осадков за период времени, мм. При наведении курсора мыши на число - период времени, за который выпало указанное количество осадков.
R24 - Количество осадков - Количество выпавших осадков за 24 часа, мм.
S - Снежный покров - Высота снежного покрова, см. При наведении курсора мыши на число - состояние снежного покрова и степень покрытия местности в баллах.